Wind_Speed
38 38 39 39 38 38 40 40 41 39 39 39 39 40 40 40 40 40 40 40 39 39 39 40 40 40 41 41 40 41 41 42 42 42 43 43 44 44 44 44 45 46 45 46
41 40 42 43 42 41 41 41 42 42 41 40 41 41 41 41 41 41 41 41 42 42 42 42 42 42 43 43 43 43 43 44 44 44 44 45 44 45 45 44 45 46 45 45
43 42 44 45 42 43 43 42 43 43 42 42 43 42 42 42 42 43 43 44 44 44 44 45 45 45 45 45 46 45 45 45 46 46 46 46 46 46 45 45 46 46 47 47
46 45 46 44 44 44 44 44 44 44 43 43 43 43 44 44 44 44 45 46 46 45 46 46 47 47 47 47 47 47 47 47 47 47 47 47 48 48 47 47 47 48 48 49
46 47 47 45 45 45 45 45 44 44 45 44 43 44 44 44 44 45 45 46 46 46 47 47 47 47 48 48 48 48 48 48 48 48 49 49 49 50 50 50 50 50 51 51
46 47 48 46 45 44 46 47 45 46 46 46 45 45 44 45 45 46 46 46 46 46 47 47 47 47 48 48 48 48 49 49 49 50 50 51 51 51 52 52 52 52 52 53
45 46 48 46 45 45 46 47 46 46 46 47 47 46 46 45 46 46 47 47 47 47 47 47 47 48 48 48 48 49 50 50 50 50 51 51 52 53 54 54 54 54 54 54
44 45 45 44 44 45 46 47 46 46 47 47 47 47 46 46 46 46 47 47 47 48 48 47 48 48 48 47 48 49 49 50 50 51 51 52 53 54 55 56 56 56 56 56
45 44 43 43 44 45 45 46 46 47 47 48 48 48 48 47 46 46 47 47 47 48 48 48 48 48 48 48 49 49 50 51 51 52 52 53 54 55 56 56 57 57 57 57
44 43 43 44 44 45 45 46 46 47 47 48 49 49 49 48 47 47 47 48 48 49 49 49 48 48 49 49 49 50 50 50 51 52 53 54 55 56 57 57 57 57 57 57
44 44 45 45 45 45 45 46 46 47 47 48 49 49 49 48 47 47 48 48 48 49 49 48 48 48 48 48 49 49 49 50 50 51 53 53 54 54 55 55 55 55 55 55
43 43 44 43 44 44 44 45 45 46 46 46 47 48 48 47 46 47 48 48 48 48 47 47 46 46 46 47 47 48 48 49 50 50 51 52 52 51 52 52 52 53 53 54
43 42 42 42 42 43 44 44 45 45 45 45 46 47 47 46 46 46 46 46 46 46 45 45 45 45 45 46 46 46 47 47 48 48 49 50 50 50 50 50 50 51 52 52
42 41 41 41 42 42 44 44 45 44 45 45 45 46 46 45 45 45 45 44 44 43 42 42 43 43 44 45 45 45 46 46 47 47 48 48 49 49 50 50 49 49 49 49
40 39 39 40 40 40 40 41 41 41 42 42 43 43 43 43 43 43 43 43 42 41 40 40 41 41 42 42 43 44 45 45 46 46 46 47 47 47 48 47 47 47 46 47
37 38 38 38 39 38 39 39 39 38 38 39 39 39 40 40 40 40 41 40 40 39 39 39 39 39 40 41 42 43 44 44 45 45 45 45 45 45 45 45 45 45 45 45
36 37 37 37 37 37 37 37 38 37 37 37 37 37 38 38 38 38 38 39 39 39 39 39 39 40 41 42 43 43 43 44 44 44 43 43 43 42 42 42 42 42 42 42
35 35 35 35 35 35 36 36 36 36 35 35 36 35 34 35 36 36 37 38 38 38 39 40 41 41 42 42 43 42 42 42 42 42 41 40 40 40 40 40 39 39 39 39
31 32 32 32 32 33 33 33 34 34 34 34 34 34 34 35 35 36 37 37 38 38 38 39 40 40 41 41 42 41 41 40 39 39 39 38 38 38 38 38 38 38 37 37
31 31 32 31 31 31 31 32 32 33 33 34 34 34 34 35 36 36 36 37 37 38 38 38 39 39 39 39 39 39 38 38 38 37 37 37 36 36 36 36 37 37 37 36
32 32 32 32 32 32 32 32 32 32 32 33 33 34 34 34 35 35 36 36 35 36 37 37 37 37 37 36 36 35 35 35 35 35 35 35 35 35 35 35 35 36 35 35
32 32 31 31 31 31 31 31 31 31 31 31 32 33 33 33 33 34 34 34 34 35 35 35 35 35 35 34 33 32 32 32 33 33 34 34 34 35 35 35 35 34 33 33
31 31 31 31 30 30 30 30 30 30 31 31 31 32 32 32 33 34 33 33 33 33 32 32 32 31 31 30 30 30 30 31 31 31 32 32 33 33 33 33 32 31 30 29
31 31 31 30 31 31 30 30 30 30 30 30 30 31 32 32 32 32 32 31 30 30 29 28 28 28 28 28 29 29 28 28 29 29 29 29 29 29 29 29 28 27 27 26
30 30 29 29 30 29 29 29 28 28 29 29 29 30 31 31 30 30 29 29 28 27 27 26 26 27 27 27 27 27 27 27 27 27 26 26 26 26 25 25 24 24 23 23
29 28 28 29 29 29 29 29 28 28 28 28 28 28 28 28 28 27 26 26 25 25 25 25 25 25 25 25 25 25 25 24 24 23 22 22 21 21 20 20 20 20 20 20
28 28 28 28 28 28 28 27 27 26 27 26 26 25 25 25 25 24 23 23 23 23 23 23 24 24 23 23 22 22 22 21 21 20 20 19 18 18 17 17 17 17 17 17
Wind_Direction
270 270 269 269 269 269 269 270 271 272 272 272 271 271 271 272 273 272 271 269 269 269 268 268 269 268 265 264 263 261 262 262 263 263 263 264 265 265 265 264 264 264 265 265
269 270 269 268 269 270 269 270 271 271 271 270 270 272 273 272 272 271 270 269 269 270 270 269 269 269 267 266 265 263 262 262 263 263 263 264 264 265 265 265 265 265 266 266
271 270 269 269 271 271 271 271 272 272 272 270 270 271 272 271 271 270 270 269 269 269 269 270 269 269 268 267 266 265 264 264 263 263 263 264 264 265 265 266 267 267 267 268
271 271 270 273 272 272 272 272 272 272 272 271 270 270 271 271 271 270 270 270 269 269 268 269 269 269 269 268 267 266 265 265 265 265 264 264 264 264 265 266 266 268 269 270
272 272 272 271 272 274 274 272 272 272 272 271 271 271 271 271 271 271 270 270 271 270 269 269 269 269 269 267 267 266 266 265 265 265 264 264 264 265 265 265 267 268 269 269
272 273 273 274 274 274 274 273 272 272 271 271 271 271 271 271 270 271 271 272 272 272 271 270 269 268 268 267 267 266 266 266 266 265 265 264 264 264 265 265 267 268 269 269
272 273 274 274 275 275 274 275 273 272 270 270 271 272 272 272 271 271 272 273 273 273 272 272 271 270 269 268 268 267 266 266 266 266 266 266 265 265 266 266 267 268 269 269
271 271 273 274 274 273 274 273 273 272 271 270 271 272 272 272 272 272 273 273 272 272 272 272 271 271 270 269 268 268 267 267 267 267 267 267 267 266 267 268 268 269 269 269
271 272 273 273 272 272 271 271 272 272 271 271 271 272 272 272 273 273 273 272 272 271 271 271 271 270 269 268 268 267 268 267 267 268 268 268 268 268 269 269 269 269 269 269
271 272 272 271 271 270 270 271 272 272 272 271 272 273 273 273 273 273 273 272 273 273 272 272 271 270 269 268 268 267 267 268 269 269 269 269 269 269 269 269 270 270 270 270
270 272 272 272 272 272 271 271 271 271 272 272 272 272 273 274 274 274 274 273 273 272 272 271 270 269 268 268 268 268 269 269 270 270 270 270 270 270 270 270 270 270 270 270
272 273 273 272 272 272 271 271 272 272 273 272 272 272 272 273 274 274 274 274 273 272 272 271 270 269 268 268 269 270 271 271 272 272 272 272 272 272 271 270 270 270 270 271
272 273 274 273 272 271 271 272 273 273 273 272 271 271 271 272 273 275 275 275 274 273 272 271 270 269 269 269 270 271 272 273 273 274 274 274 273 273 271 270 270 271 271 271
272 274 275 274 272 272 273 273 273 273 273 273 272 271 271 272 273 275 275 275 275 273 272 271 270 270 269 270 271 272 273 274 274 275 275 275 274 274 273 273 272 272 272 272
273 275 276 276 275 274 275 275 275 274 274 274 273 272 272 271 272 273 274 274 274 273 272 272 271 271 271 271 272 273 274 274 275 275 275 275 275 275 275 274 273 272 271 271
275 276 277 277 277 277 276 277 277 276 276 275 274 272 271 270 272 273 273 273 273 272 272 272 272 272 273 274 274 275 275 275 275 275 275 275 275 274 275 275 274 273 273 272
279 279 278 277 277 276 276 277 277 277 276 275 273 272 272 272 272 272 273 273 273 272 272 273 273 273 275 276 276 276 276 275 275 275 275 275 275 274 274 274 274 274 273 273
282 282 281 280 278 277 277 276 275 275 275 274 273 273 274 275 275 276 275 274 274 274 274 275 275 275 275 276 277 277 277 276 275 275 274 274 274 274 274 274 274 274 273 272
283 283 283 281 280 279 277 276 273 274 275 275 275 275 276 277 278 278 278 277 277 276 276 276 277 277 277 277 277 277 276 275 275 275 274 274 274 274 274 274 274 274 274 273
282 283 283 282 281 279 278 277 276 275 275 275 277 277 278 278 279 280 280 279 279 278 277 277 277 277 278 278 278 277 276 275 275 275 274 274 274 274 274 274 274 273 273 273
283 284 285 284 282 280 278 278 277 277 276 276 277 278 279 280 280 281 281 280 279 278 277 277 277 278 278 278 278 277 276 276 276 275 273 273 273 273 274 274 275 274 273 272
283 284 284 285 284 282 280 280 279 279 278 278 278 279 280 281 282 283 283 282 280 278 277 276 277 278 278 278 277 277 278 278 277 276 276 275 275 274 275 275 275 274 273 271
283 284 284 284 285 284 284 282 281 281 281 281 281 281 280 281 282 283 283 282 281 280 278 277 277 277 277 277 278 279 280 279 279 279 278 277 277 276 276 275 275 273 271 269
284 284 284 284 284 285 285 283 281 280 280 281 282 282 282 282 282 283 283 282 281 281 280 278 277 278 277 278 279 281 282 282 282 281 280 279 277 276 275 273 272 270 268 266
285 285 284 284 285 286 286 285 283 280 279 280 281 282 283 283 284 283 283 282 282 281 280 278 277 278 278 279 280 281 282 282 283 283 283 281 280 277 274 271 268 266 264 264
287 287 285 285 286 286 286 285 285 283 281 281 281 282 283 284 284 283 283 282 281 281 280 278 278 280 281 281 280 281 282 283 284 283 283 283 282 278 274 271 268 265 263 263
287 287 287 287 286 286 285 285 285 284 283 283 282 282 283 282 281 281 281 282 282 282 280 279 279 280 281 281 282 282 282 282 282 282 282 283 281 278 274 270 268 265 263 262
Height
5626 5626 5626 5626 5627 5627 5626 5626 5627 5629 5629 5629 5628 5628 5628 5628 5628 5628 5628 5628 5628 5628 5628 5628 5628 5628 5629 5630 5630 5631 5632 5633 5633 5634 5635 5636 5637 5638 5639 5640 5641 5642 5642 5643
5615 5615 5614 5614 5616 5616 5615 5615 5615 5616 5617 5618 5616 5616 5616 5616 5616 5616 5616 5616 5616 5616 5616 5616 5616 5616 5616 5617 5618 5618 5619 5620 5621 5622 5622 5623 5624 5625 5626 5627 5628 5629 5630 5630
5602 5603 5601 5602 5606 5604 5604 5604 5604 5603 5606 5605 5604 5604 5604 5603 5603 5603 5604 5604 5603 5603 5603 5603 5603 5603 5603 5604 5604 5605 5606 5607 5608 5609 5609 5610 5611 5612 5613 5614 5614 5615 5616 5617
5588 5589 5588 5594 5592 5592 5591 5592 5591 5591 5591 5591 5591 5591 5591 5591 5591 5590 5590 5590 5590 5590 5590 5590 5590 5589 5590 5590 5591 5591 5592 5593 5594 5595 5596 5596 5597 5598 5599 5600 5601 5602 5602 5603
5575 5574 5575 5580 5579 5578 5578 5579 5579 5578 5577 5577 5577 5578 5578 5578 5577 5577 5577 5576 5576 5576 5576 5576 5576 5576 5575 5576 5577 5577 5578 5579 5580 5580 5581 5582 5583 5584 5585 5586 5587 5587 5588 5588
5562 5561 5562 5567 5566 5564 5564 5564 5566 5564 5564 5564 5564 5564 5566 5565 5564 5563 5563 5563 5563 5562 5562 5562 5562 5562 5561 5562 5562 5563 5564 5564 5565 5566 5567 5568 5569 5570 5571 5571 5572 5572 5573 5573
5550 5548 5549 5553 5552 5551 5552 5552 5551 5550 5550 5550 5550 5550 5551 5550 5550 5550 5549 5549 5549 5548 5548 5548 5548 5547 5547 5548 5548 5549 5549 5550 5550 5551 5552 5552 5553 5554 5555 5556 5556 5557 5557 5558
5538 5537 5540 5539 5538 5538 5537 5536 5536 5536 5536 5536 5536 5536 5536 5536 5536 5536 5535 5535 5534 5534 5534 5534 5533 5533 5533 5534 5534 5534 5534 5535 5535 5536 5536 5537 5538 5538 5539 5539 5540 5540 5540 5541
5526 5527 5526 5525 5524 5523 5522 5522 5522 5522 5522 5522 5522 5523 5523 5523 5522 5522 5521 5521 5520 5520 5520 5519 5519 5518 5518 5519 5519 5519 5520 5520 5520 5521 5521 5521 5521 5522 5522 5522 5522 5522 5523 5523
5512 5512 5512 5511 5510 5510 5509 5509 5508 5508 5508 5508 5508 5508 5508 5508 5508 5507 5507 5506 5506 5505 5505 5505 5504 5504 5504 5504 5504 5504 5505 5505 5505 5505 5505 5505 5505 5505 5505 5505 5505 5505 5505 5505
5498 5498 5497 5498 5497 5496 5496 5496 5495 5495 5494 5493 5493 5493 5493 5493 5493 5492 5492 5491 5491 5490 5490 5490 5489 5489 5489 5489 5489 5489 5490 5490 5490 5489 5489 5489 5489 5488 5488 5488 5487 5487 5487 5487
5485 5485 5484 5484 5484 5483 5482 5482 5481 5481 5480 5480 5479 5479 5479 5479 5479 5478 5477 5477 5476 5475 5475 5475 5475 5475 5474 5474 5474 5474 5475 5475 5474 5474 5473 5473 5472 5473 5472 5472 5471 5471 5470 5470
5472 5472 5471 5471 5470 5470 5469 5468 5468 5467 5466 5466 5465 5465 5465 5465 5465 5464 5464 5463 5462 5461 5461 5460 5460 5460 5460 5460 5460 5460 5460 5460 5459 5459 5458 5457 5457 5456 5456 5457 5456 5455 5454 5454
5460 5459 5458 5458 5457 5457 5456 5455 5454 5453 5452 5452 5451 5451 5451 5451 5451 5451 5450 5449 5448 5447 5447 5447 5446 5446 5446 5446 5446 5446 5445 5445 5444 5444 5443 5442 5441 5441 5440 5440 5440 5440 5439 5438
5448 5447 5446 5445 5445 5444 5443 5441 5441 5440 5439 5438 5438 5437 5437 5437 5437 5437 5437 5436 5435 5434 5434 5434 5433 5433 5433 5432 5432 5432 5431 5431 5430 5429 5428 5427 5426 5425 5425 5424 5424 5424 5424 5424
5436 5435 5434 5433 5432 5432 5431 5429 5428 5428 5427 5426 5425 5425 5424 5424 5424 5424 5424 5423 5422 5422 5422 5421 5421 5421 5420 5419 5418 5418 5417 5417 5415 5414 5414 5413 5412 5411 5410 5410 5409 5409 5409 5409
5424 5424 5423 5422 5421 5420 5419 5418 5417 5416 5415 5414 5414 5413 5412 5412 5412 5412 5411 5411 5410 5410 5410 5409 5409 5408 5407 5406 5405 5404 5403 5402 5401 5400 5399 5399 5398 5397 5396 5396 5395 5395 5395 5394
5414 5413 5411 5410 5409 5408 5407 5406 5405 5405 5404 5403 5402 5402 5401 5401 5400 5400 5399 5399 5398 5398 5398 5396 5395 5395 5394 5392 5391 5390 5389 5388 5387 5386 5386 5385 5384 5383 5383 5383 5382 5382 5382 5381
5403 5402 5401 5399 5398 5397 5396 5395 5395 5394 5393 5392 5392 5391 5390 5390 5389 5388 5388 5387 5386 5386 5386 5384 5382 5381 5381 5379 5378 5377 5376 5375 5374 5374 5373 5372 5371 5371 5370 5370 5370 5370 5369 5369
5394 5393 5391 5390 5388 5387 5386 5385 5384 5383 5383 5382 5381 5380 5380 5379 5378 5377 5376 5375 5374 5373 5372 5371 5370 5369 5368 5366 5365 5364 5363 5363 5362 5361 5361 5360 5359 5359 5358 5358 5358 5357 5357 5357
5385 5383 5381 5380 5378 5377 5376 5375 5373 5373 5372 5371 5371 5370 5369 5368 5367 5365 5364 5363 5363 5361 5360 5359 5358 5357 5355 5354 5353 5352 5352 5351 5350 5350 5349 5348 5348 5347 5347 5346 5346 5346 5346 5346
5375 5373 5372 5370 5368 5367 5366 5365 5363 5362 5362 5361 5360 5359 5358 5357 5356 5354 5353 5351 5351 5349 5348 5347 5346 5345 5344 5343 5342 5342 5341 5340 5339 5338 5338 5337 5336 5336 5336 5335 5335 5334 5334 5334
5365 5363 5362 5360 5359 5357 5356 5355 5354 5352 5351 5351 5350 5349 5347 5346 5345 5343 5342 5341 5339 5338 5336 5336 5335 5334 5333 5332 5332 5331 5331 5330 5329 5328 5327 5326 5325 5325 5324 5324 5324 5324 5324 5324
5355 5354 5352 5350 5349 5347 5346 5345 5344 5343 5342 5341 5340 5339 5337 5335 5334 5333 5331 5330 5329 5327 5327 5326 5325 5325 5324 5323 5323 5322 5321 5320 5319 5318 5317 5316 5315 5314 5314 5313 5314 5314 5314 5315
5345 5344 5342 5341 5339 5338 5337 5335 5334 5333 5332 5331 5330 5329 5327 5325 5324 5323 5322 5321 5319 5318 5318 5317 5316 5316 5315 5314 5314 5313 5312 5311 5310 5309 5307 5306 5306 5305 5305 5305 5305 5305 5306 5307
5336 5334 5333 5331 5330 5329 5327 5326 5325 5324 5323 5322 5321 5320 5318 5316 5315 5314 5313 5312 5311 5310 5309 5309 5308 5307 5306 5306 5305 5304 5303 5302 5301 5300 5299 5299 5298 5297 5297 5297 5298 5298 5299 5300
5328 5326 5324 5322 5321 5319 5318 5316 5315 5314 5313 5312 5311 5310 5309 5308 5307 5306 5305 5304 5303 5302 5301 5301 5300 5299 5298 5298 5297 5296 5296 5295 5294 5293 5293 5292 5291 5291 5291 5291 5292 5292 5293 5294